Time,TemperatureF,DewpointF,PressureIn,WindDirection,WindDirectionDegrees,WindSpeedMPH,WindSpeedGustMPH,Humidity,HourlyPrecipIn,Conditions,Clouds,dailyrainin,SoftwareType,DateUTC
2013-03-13 00:00:00,55.8,47.3,29.91,North,0,2.0,5.0,73,0.00,,,0.11,meteohub,2013-03-13 04:00:00,
2013-03-13 00:01:00,55.6,47.1,29.91,North,0,4.0,5.0,73,0.00,,,0.11,meteohub,2013-03-13 04:01:00,
2013-03-13 00:02:00,55.6,47.5,29.91,WNW,293,2.0,5.0,74,0.00,,,0.11,meteohub,2013-03-13 04:02:00,
2013-03-13 00:07:00,55.4,46.9,29.91,NW,315,3.0,5.0,73,0.00,,,0.00,meteohub,2013-03-13 04:07:00,
2013-03-13 00:12:00,55.0,46.6,29.91,North,0,3.0,5.0,73,0.00,,,0.00,meteohub,2013-03-13 04:12:00,
2013-03-13 00:18:00,55.0,46.2,29.91,North,0,2.0,5.0,72,0.00,,,0.00,meteohub,2013-03-13 04:18:00,
2013-03-13 00:23:00,54.7,46.2,29.91,NW,315,2.0,6.0,73,0.00,,,0.00,meteohub,2013-03-13 04:23:00,
2013-03-13 00:28:00,54.5,46.0,29.91,North,0,3.0,6.0,73,0.00,,,0.00,meteohub,2013-03-13 04:28:00,
2013-03-13 00:33:00,54.3,45.9,29.91,North,0,2.0,4.0,73,0.00,,,0.00,meteohub,2013-03-13 04:33:00,
2013-03-13 00:38:00,54.1,45.3,29.92,NNW,338,4.0,6.0,72,0.00,,,0.00,meteohub,2013-03-13 04:38:00,
2013-03-13 00:44:00,54.0,45.5,29.92,West,270,4.0,6.0,73,0.00,,,0.00,meteohub,2013-03-13 04:44:00,
2013-03-13 00:49:00,53.8,45.3,29.92,NW,315,2.0,6.0,73,0.00,,,0.00,meteohub,2013-03-13 04:49:00,
2013-03-13 00:54:00,54.0,45.5,29.92,North,0,3.0,4.0,73,0.00,,,0.00,meteohub,2013-03-13 04:54:00,
2013-03-13 00:59:00,53.6,44.8,29.92,NW,315,2.0,4.0,72,0.00,,,0.00,meteohub,2013-03-13 04:59:00,
2013-03-13 01:05:00,53.2,44.8,29.92,North,0,1.0,4.0,73,0.00,,,0.00,meteohub,2013-03-13 05:05:00,
2013-03-13 01:10:00,52.9,44.8,29.92,North,0,2.0,6.0,74,0.00,,,0.00,meteohub,2013-03-13 05:10:00,
2013-03-13 01:15:00,52.5,44.4,29.92,North,0,3.0,6.0,74,0.00,,,0.00,meteohub,2013-03-13 05:15:00,
2013-03-13 01:20:00,52.5,44.1,29.93,West,270,2.0,4.0,73,0.00,,,0.00,meteohub,2013-03-13 05:20:00,
2013-03-13 01:25:00,52.3,43.9,29.93,NW,315,2.0,4.0,73,0.00,,,0.00,meteohub,2013-03-13 05:25:00,
2013-03-13 01:31:00,52.2,44.1,29.93,North,0,3.0,4.0,74,0.00,,,0.00,meteohub,2013-03-13 05:31:00,
2013-03-13 01:36:00,52.3,43.9,29.93,North,0,3.0,8.0,73,0.00,,,0.00,meteohub,2013-03-13 05:36:00,
2013-03-13 01:41:00,52.3,43.9,29.93,North,0,2.0,8.0,73,0.00,,,0.00,meteohub,2013-03-13 05:41:00,
2013-03-13 01:46:00,52.2,44.1,29.93,North,0,4.0,8.0,74,0.00,,,0.00,meteohub,2013-03-13 05:46:00,
2013-03-13 01:52:00,51.8,43.7,29.93,North,0,1.0,7.0,74,0.00,,,0.00,meteohub,2013-03-13 05:52:00,
2013-03-13 01:57:00,51.6,43.5,29.93,NW,315,4.0,7.0,74,0.00,,,0.00,meteohub,2013-03-13 05:57:00,
2013-03-13 02:02:00,51.6,43.5,29.93,North,0,3.0,7.0,74,0.00,,,0.00,meteohub,2013-03-13 06:02:00,
2013-03-13 02:07:00,51.6,43.5,29.93,North,0,2.0,4.0,74,0.00,,,0.00,meteohub,2013-03-13 06:07:00,
2013-03-13 02:12:00,51.6,43.3,29.93,NW,315,4.0,8.0,73,0.00,,,0.00,meteohub,2013-03-13 06:12:00,
2013-03-13 02:18:00,51.6,43.5,29.93,North,0,4.0,8.0,74,0.00,,,0.00,meteohub,2013-03-13 06:18:00,
2013-03-13 02:23:00,51.6,43.3,29.93,NE,45,5.0,8.0,73,0.00,,,0.00,meteohub,2013-03-13 06:23:00,
2013-03-13 02:28:00,51.6,43.3,29.93,North,0,3.0,7.0,73,0.00,,,0.00,meteohub,2013-03-13 06:28:00,
2013-03-13 02:33:00,51.6,43.3,29.93,West,270,2.0,7.0,73,0.00,,,0.00,meteohub,2013-03-13 06:33:00,
2013-03-13 02:38:00,51.4,43.2,29.94,North,0,1.0,7.0,73,0.00,,,0.00,meteohub,2013-03-13 06:38:00,
2013-03-13 02:44:00,51.3,43.0,29.93,North,0,4.0,7.0,73,0.00,,,0.00,meteohub,2013-03-13 06:44:00,
2013-03-13 02:49:00,51.1,43.2,29.94,North,0,2.0,6.0,74,0.00,,,0.00,meteohub,2013-03-13 06:49:00,
2013-03-13 02:54:00,51.1,42.8,29.93,North,0,3.0,5.0,73,0.00,,,0.00,meteohub,2013-03-13 06:54:00,
2013-03-13 03:00:00,50.9,42.6,29.93,SW,225,4.0,5.0,73,0.00,,,0.00,meteohub,2013-03-13 07:00:00,
2013-03-13 03:05:00,50.7,42.4,29.94,WNW,293,4.0,5.0,73,0.00,,,0.00,meteohub,2013-03-13 07:05:00,
2013-03-13 03:10:00,50.5,42.3,29.94,NNW,338,2.0,4.0,73,0.00,,,0.00,meteohub,2013-03-13 07:10:00,
2013-03-13 03:16:00,50.4,42.4,29.93,NE,45,1.0,4.0,74,0.00,,,0.00,meteohub,2013-03-13 07:16:00,
2013-03-13 03:21:00,50.2,42.3,29.93,North,0,2.0,4.0,74,0.00,,,0.00,meteohub,2013-03-13 07:21:00,
2013-03-13 03:26:00,49.8,42.3,29.94,NE,45,1.0,4.0,75,0.00,,,0.00,meteohub,2013-03-13 07:26:00,
2013-03-13 03:32:00,49.5,41.9,29.94,NW,315,2.0,3.0,75,0.00,,,0.00,meteohub,2013-03-13 07:32:00,
2013-03-13 03:37:00,49.1,41.9,29.94,NW,315,2.0,3.0,76,0.00,,,0.00,meteohub,2013-03-13 07:37:00,
2013-03-13 03:42:00,49.1,41.9,29.94,North,0,2.0,3.0,76,0.00,,,0.00,meteohub,2013-03-13 07:42:00,
2013-03-13 03:47:00,48.9,41.7,29.94,North,0,3.0,4.0,76,0.00,,,0.00,meteohub,2013-03-13 07:47:00,
2013-03-13 03:52:00,49.1,41.9,29.94,NW,315,3.0,4.0,76,0.00,,,0.00,meteohub,2013-03-13 07:52:00,
2013-03-13 03:57:00,49.1,41.5,29.94,NW,315,3.0,4.0,75,0.00,,,0.00,meteohub,2013-03-13 07:57:00,
2013-03-13 04:02:00,48.9,41.7,29.94,North,0,2.0,4.0,76,0.00,,,0.00,meteohub,2013-03-13 08:02:00,
2013-03-13 04:08:00,48.7,41.5,29.95,NW,315,4.0,4.0,76,0.00,,,0.00,meteohub,2013-03-13 08:08:00,
2013-03-13 04:13:00,48.6,41.4,29.95,SW,225,2.0,4.0,76,0.00,,,0.00,meteohub,2013-03-13 08:13:00,
2013-03-13 04:18:00,48.6,41.4,29.95,NNW,338,2.0,4.0,76,0.00,,,0.00,meteohub,2013-03-13 08:18:00,
2013-03-13 04:23:00,48.6,41.4,29.95,North,0,4.0,5.0,76,0.00,,,0.00,meteohub,2013-03-13 08:23:00,
2013-03-13 04:28:00,48.7,41.5,29.95,NW,315,2.0,5.0,76,0.00,,,0.00,meteohub,2013-03-13 08:28:00,
2013-03-13 04:33:00,48.4,41.2,29.95,NW,315,2.0,5.0,76,0.00,,,0.00,meteohub,2013-03-13 08:33:00,
2013-03-13 04:39:00,48.2,41.0,29.95,North,0,1.0,4.0,76,0.00,,,0.00,meteohub,2013-03-13 08:39:00,
2013-03-13 04:44:00,48.2,41.4,29.96,NW,315,2.0,2.0,77,0.00,,,0.00,meteohub,2013-03-13 08:44:00,
2013-03-13 04:49:00,47.8,41.0,29.96,NW,315,2.0,3.0,77,0.00,,,0.00,meteohub,2013-03-13 08:49:00,
2013-03-13 04:55:00,47.7,41.2,29.96,North,0,2.0,3.0,78,0.00,,,0.00,meteohub,2013-03-13 08:55:00,
2013-03-13 05:00:00,47.7,41.2,29.96,North,0,2.0,3.0,78,0.00,,,0.00,meteohub,2013-03-13 09:00:00,
2013-03-13 05:05:00,47.7,41.5,29.96,NW,315,2.0,4.0,79,0.00,,,0.00,meteohub,2013-03-13 09:05:00,
2013-03-13 05:10:00,47.3,41.2,29.97,NW,315,2.0,4.0,79,0.00,,,0.00,meteohub,2013-03-13 09:10:00,
2013-03-13 05:15:00,47.1,40.6,29.97,NW,315,2.0,3.0,78,0.00,,,0.00,meteohub,2013-03-13 09:15:00,
2013-03-13 05:20:00,47.1,41.4,29.97,North,0,1.0,4.0,80,0.00,,,0.00,meteohub,2013-03-13 09:20:00,
2013-03-13 05:25:00,46.8,40.6,29.98,NW,315,2.0,4.0,79,0.00,,,0.00,meteohub,2013-03-13 09:25:00,
2013-03-13 05:31:00,46.8,41.0,29.98,North,0,2.0,4.0,80,0.00,,,0.00,meteohub,2013-03-13 09:31:00,
2013-03-13 05:37:00,46.9,41.2,29.98,North,0,2.0,4.0,80,0.00,,,0.00,meteohub,2013-03-13 09:37:00,
2013-03-13 05:42:00,46.8,41.0,29.98,North,0,2.0,4.0,80,0.00,,,0.00,meteohub,2013-03-13 09:42:00,
2013-03-13 05:47:00,46.8,41.0,29.99,NE,45,2.0,4.0,80,0.00,,,0.00,meteohub,2013-03-13 09:47:00,
2013-03-13 05:52:00,46.6,40.8,29.98,North,0,1.0,4.0,80,0.00,,,0.00,meteohub,2013-03-13 09:52:00,
2013-03-13 05:57:00,46.4,40.8,29.98,North,0,0.0,4.0,81,0.00,,,0.00,meteohub,2013-03-13 09:57:00,
2013-03-13 06:02:00,46.2,40.6,29.99,NW,315,0.0,2.0,81,0.00,,,0.00,meteohub,2013-03-13 10:02:00,
2013-03-13 06:07:00,46.0,41.2,29.99,North,0,2.0,2.0,83,0.00,,,0.00,meteohub,2013-03-13 10:07:00,
2013-03-13 06:12:00,45.9,40.6,29.99,NW,315,2.0,2.0,82,0.00,,,0.00,meteohub,2013-03-13 10:12:00,
2013-03-13 06:17:00,45.9,41.0,29.99,NW,315,4.0,4.0,83,0.00,,,0.00,meteohub,2013-03-13 10:17:00,
2013-03-13 06:22:00,45.9,41.0,30.00,NW,315,2.0,4.0,83,0.00,,,0.00,meteohub,2013-03-13 10:22:00,
2013-03-13 06:27:00,45.7,40.8,30.00,West,270,1.0,4.0,83,0.00,,,0.00,meteohub,2013-03-13 10:27:00,
2013-03-13 06:32:00,45.5,41.0,30.01,North,0,2.0,4.0,84,0.00,,,0.00,meteohub,2013-03-13 10:32:00,
2013-03-13 06:37:00,45.3,40.8,30.01,NW,315,2.0,2.0,84,0.00,,,0.00,meteohub,2013-03-13 10:37:00,
2013-03-13 06:42:00,45.1,40.8,30.01,NW,315,1.0,3.0,85,0.00,,,0.00,meteohub,2013-03-13 10:42:00,
2013-03-13 06:47:00,45.0,40.6,30.01,North,0,2.0,3.0,85,0.00,,,0.00,meteohub,2013-03-13 10:47:00,
2013-03-13 06:52:00,45.0,40.6,30.02,North,0,2.0,3.0,85,0.00,,,0.00,meteohub,2013-03-13 10:52:00,
2013-03-13 06:57:00,45.0,40.6,30.02,North,0,0.0,3.0,85,0.00,,,0.00,meteohub,2013-03-13 10:57:00,
2013-03-13 07:02:00,44.8,40.5,30.02,North,0,2.0,3.0,85,0.00,,,0.00,meteohub,2013-03-13 11:02:00,
2013-03-13 07:07:00,44.4,40.3,30.03,North,0,1.0,2.0,85,0.00,,,0.00,meteohub,2013-03-13 11:07:00,
2013-03-13 07:12:00,44.2,40.3,30.03,NW,315,2.0,2.0,86,0.00,,,0.00,meteohub,2013-03-13 11:12:00,
2013-03-13 07:17:00,44.1,40.5,30.03,NW,315,1.0,2.0,87,0.00,,,0.00,meteohub,2013-03-13 11:17:00,
2013-03-13 07:22:00,44.1,40.8,30.04,North,0,2.0,2.0,88,0.00,,,0.00,meteohub,2013-03-13 11:22:00,
2013-03-13 07:28:00,44.1,40.8,30.04,West,270,3.0,3.0,88,0.00,,,0.00,meteohub,2013-03-13 11:28:00,
2013-03-13 07:33:00,44.1,40.8,30.04,West,270,2.0,3.0,88,0.00,,,0.00,meteohub,2013-03-13 11:33:00,
2013-03-13 07:38:00,44.1,40.8,30.04,NW,315,1.0,3.0,88,0.00,,,0.00,meteohub,2013-03-13 11:38:00,
2013-03-13 07:43:00,44.1,40.8,30.04,NW,315,2.0,3.0,88,0.00,,,0.00,meteohub,2013-03-13 11:43:00,
2013-03-13 07:49:00,43.9,40.6,30.04,NW,315,1.0,3.0,88,0.00,,,0.00,meteohub,2013-03-13 11:49:00,
2013-03-13 07:54:00,44.1,40.8,30.04,West,270,2.0,3.0,88,0.00,,,0.00,meteohub,2013-03-13 11:54:00,
2013-03-13 07:59:00,44.6,41.2,30.04,NW,315,2.0,2.0,88,0.00,,,0.00,meteohub,2013-03-13 11:59:00,
2013-03-13 08:05:00,44.8,41.4,30.04,NW,315,2.0,2.0,88,0.00,,,0.00,meteohub,2013-03-13 12:05:00,
2013-03-13 08:10:00,45.3,41.9,30.05,NW,315,2.0,2.0,88,0.00,,,0.00,meteohub,2013-03-13 12:10:00,
2013-03-13 08:15:00,47.8,43.2,30.05,NW,315,2.0,4.0,84,0.00,,,0.00,meteohub,2013-03-13 12:15:00,
2013-03-13 08:20:00,50.0,44.4,30.05,North,0,2.0,4.0,81,0.00,,,0.00,meteohub,2013-03-13 12:20:00,
2013-03-13 08:25:00,51.6,44.2,30.05,North,0,2.0,4.0,76,0.00,,,0.00,meteohub,2013-03-13 12:25:00,
2013-03-13 08:30:00,52.9,44.8,30.06,NW,315,2.0,4.0,74,0.00,,,0.00,meteohub,2013-03-13 12:30:00,
2013-03-13 08:35:00,53.8,45.0,30.06,North,0,2.0,4.0,72,0.00,,,0.00,meteohub,2013-03-13 12:35:00,
2013-03-13 08:41:00,55.2,45.7,30.06,North,0,3.0,4.0,70,0.00,,,0.00,meteohub,2013-03-13 12:41:00,
2013-03-13 08:46:00,55.9,45.5,30.06,NW,315,3.0,4.0,68,0.00,,,0.00,meteohub,2013-03-13 12:46:00,
2013-03-13 08:52:00,56.7,46.9,30.06,North,0,2.0,4.0,70,0.00,,,0.00,meteohub,2013-03-13 12:52:00,
2013-03-13 08:57:00,60.4,48.6,30.07,North,0,2.0,4.0,65,0.00,,,0.00,meteohub,2013-03-13 12:57:00,
2013-03-13 09:02:00,61.3,48.2,30.07,NW,315,2.0,4.0,62,0.00,,,0.00,meteohub,2013-03-13 13:02:00,
2013-03-13 09:07:00,61.5,49.3,30.07,North,0,2.0,6.0,64,0.00,,,0.00,meteohub,2013-03-13 13:07:00,
2013-03-13 09:12:00,61.3,48.2,30.07,North,0,2.0,6.0,62,0.00,,,0.00,meteohub,2013-03-13 13:12:00,
2013-03-13 09:17:00,61.3,47.3,30.07,North,0,5.0,6.0,60,0.00,,,0.00,meteohub,2013-03-13 13:17:00,
2013-03-13 09:22:00,61.2,47.1,30.07,North,0,3.0,7.0,60,0.00,,,0.00,meteohub,2013-03-13 13:22:00,
2013-03-13 09:27:00,61.3,47.3,30.07,NNW,338,4.0,7.0,60,0.00,,,0.00,meteohub,2013-03-13 13:27:00,
2013-03-13 09:32:00,61.2,47.1,30.07,NW,315,3.0,7.0,60,0.00,,,0.00,meteohub,2013-03-13 13:32:00,
2013-03-13 09:37:00,62.2,47.7,30.07,SE,135,2.0,6.0,59,0.00,,,0.00,meteohub,2013-03-13 13:37:00,
2013-03-13 09:42:00,62.8,46.9,30.07,North,0,4.0,6.0,56,0.00,,,0.00,meteohub,2013-03-13 13:42:00,
2013-03-13 09:47:00,62.4,46.9,30.07,North,0,4.0,5.0,57,0.00,,,0.00,meteohub,2013-03-13 13:47:00,
2013-03-13 09:52:00,63.3,46.9,30.07,North,0,4.0,5.0,55,0.00,,,0.00,meteohub,2013-03-13 13:52:00,
2013-03-13 09:57:00,64.0,47.1,30.07,North,0,4.0,5.0,54,0.00,,,0.00,meteohub,2013-03-13 13:57:00,
2013-03-13 10:03:00,64.4,47.8,30.07,North,0,4.0,6.0,55,0.00,,,0.00,meteohub,2013-03-13 14:03:00,
2013-03-13 10:08:00,64.2,46.2,30.07,NW,315,3.0,6.0,52,0.00,,,0.00,meteohub,2013-03-13 14:08:00,
2013-03-13 10:13:00,64.0,46.0,30.07,NW,315,6.0,6.0,52,0.00,,,0.00,meteohub,2013-03-13 14:13:00,
2013-03-13 10:18:00,64.8,46.8,30.07,North,0,2.0,8.0,52,0.00,,,0.00,meteohub,2013-03-13 14:18:00,
2013-03-13 10:23:00,64.8,46.2,30.07,NW,315,2.0,8.0,51,0.00,,,0.00,meteohub,2013-03-13 14:23:00,
2013-03-13 10:29:00,65.1,46.0,30.07,South,180,4.0,8.0,50,0.00,,,0.00,meteohub,2013-03-13 14:29:00,
2013-03-13 10:34:00,65.5,44.8,30.07,NW,315,4.0,8.0,47,0.00,,,0.00,meteohub,2013-03-13 14:34:00,
2013-03-13 10:39:00,65.5,46.4,30.07,SE,135,2.0,6.0,50,0.00,,,0.00,meteohub,2013-03-13 14:39:00,
2013-03-13 10:44:00,66.4,45.0,30.07,North,0,3.0,5.0,46,0.00,,,0.00,meteohub,2013-03-13 14:44:00,
2013-03-13 10:49:00,66.2,45.3,30.07,NW,315,3.0,6.0,47,0.00,,,0.00,meteohub,2013-03-13 14:49:00,
2013-03-13 10:54:00,66.7,44.8,30.07,North,0,6.0,6.0,45,0.00,,,0.00,meteohub,2013-03-13 14:54:00,
2013-03-13 11:00:00,66.7,44.1,30.07,SW,225,4.0,6.0,44,0.00,,,0.00,meteohub,2013-03-13 15:00:00,
2013-03-13 11:05:00,66.2,44.2,30.07,North,0,4.0,8.0,45,0.00,,,0.00,meteohub,2013-03-13 15:05:00,
2013-03-13 11:10:00,66.7,45.9,30.08,NNW,338,3.0,8.0,47,0.00,,,0.00,meteohub,2013-03-13 15:10:00,
2013-03-13 11:15:00,67.1,44.4,30.07,SE,135,2.0,6.0,44,0.00,,,0.00,meteohub,2013-03-13 15:15:00,
2013-03-13 11:21:00,66.0,43.5,30.08,NE,45,5.0,5.0,44,0.00,,,0.00,meteohub,2013-03-13 15:21:00,
2013-03-13 11:26:00,65.8,43.9,30.07,North,0,8.0,11.0,45,0.00,,,0.00,meteohub,2013-03-13 15:26:00,
2013-03-13 11:32:00,66.0,45.7,30.07,North,0,3.0,11.0,48,0.00,,,0.00,meteohub,2013-03-13 15:32:00,
2013-03-13 11:37:00,67.1,43.9,30.07,North,0,8.0,11.0,43,0.00,,,0.00,meteohub,2013-03-13 15:37:00,
2013-03-13 11:42:00,66.9,45.0,30.07,NW,315,4.0,9.0,45,0.00,,,0.00,meteohub,2013-03-13 15:42:00,
2013-03-13 11:48:00,67.5,44.2,30.07,WNW,293,10.0,10.0,43,0.00,,,0.00,meteohub,2013-03-13 15:48:00,
2013-03-13 11:53:00,67.6,43.2,30.06,NW,315,5.0,10.0,41,0.00,,,0.00,meteohub,2013-03-13 15:53:00,
2013-03-13 11:58:00,67.6,42.4,30.06,WNW,293,11.0,11.0,40,0.00,,,0.00,meteohub,2013-03-13 15:58:00,
2013-03-13 12:03:00,67.6,41.7,30.06,SW,225,7.0,15.0,39,0.00,,,0.00,meteohub,2013-03-13 16:03:00,
2013-03-13 12:08:00,67.5,41.7,30.06,North,0,4.0,15.0,39,0.00,,,0.00,meteohub,2013-03-13 16:08:00,
2013-03-13 12:13:00,68.0,42.8,30.05,North,0,8.0,15.0,40,0.00,,,0.00,meteohub,2013-03-13 16:13:00,
2013-03-13 12:19:00,68.5,43.9,30.06,North,0,5.0,10.0,41,0.00,,,0.00,meteohub,2013-03-13 16:19:00,
2013-03-13 12:24:00,68.9,43.0,30.05,North,0,6.0,10.0,39,0.00,,,0.00,meteohub,2013-03-13 16:24:00,
2013-03-13 12:29:00,68.9,44.2,30.05,North,0,8.0,12.0,41,0.00,,,0.00,meteohub,2013-03-13 16:29:00,
2013-03-13 12:34:00,68.7,42.8,30.04,NW,315,8.0,12.0,39,0.00,,,0.00,meteohub,2013-03-13 16:34:00,
2013-03-13 12:39:00,68.7,44.1,30.05,NW,315,7.0,12.0,41,0.00,,,0.00,meteohub,2013-03-13 16:39:00,
2013-03-13 12:44:00,69.1,45.7,30.05,North,0,9.0,12.0,43,0.00,,,0.00,meteohub,2013-03-13 16:44:00,
2013-03-13 12:50:00,68.9,43.5,30.04,North,0,10.0,10.0,40,0.00,,,0.00,meteohub,2013-03-13 16:50:00,
2013-03-13 12:55:00,68.4,41.7,30.04,NNW,338,15.0,15.0,38,0.00,,,0.00,meteohub,2013-03-13 16:55:00,
2013-03-13 13:00:00,68.0,43.3,30.04,North,0,13.0,15.0,41,0.00,,,0.00,meteohub,2013-03-13 17:00:00,
2013-03-13 13:06:00,68.2,44.2,30.04,North,0,13.0,15.0,42,0.00,,,0.00,meteohub,2013-03-13 17:06:00,
2013-03-13 13:11:00,67.8,41.9,30.04,NW,315,9.0,15.0,39,0.00,,,0.00,meteohub,2013-03-13 17:11:00,
2013-03-13 13:16:00,68.0,44.1,30.03,North,0,5.0,15.0,42,0.00,,,0.00,meteohub,2013-03-13 17:16:00,
2013-03-13 13:21:00,68.4,43.7,30.03,NW,315,9.0,15.0,41,0.00,,,0.00,meteohub,2013-03-13 17:21:00,
2013-03-13 13:27:00,68.4,41.0,30.02,NNE,23,16.0,16.0,37,0.00,,,0.00,meteohub,2013-03-13 17:27:00,
2013-03-13 13:32:00,68.9,43.5,30.03,NW,315,14.0,16.0,40,0.00,,,0.00,meteohub,2013-03-13 17:32:00,
2013-03-13 13:37:00,69.3,41.9,30.02,North,0,11.0,16.0,37,0.00,,,0.00,meteohub,2013-03-13 17:37:00,
2013-03-13 13:42:00,70.0,43.2,30.02,NW,315,15.0,16.0,38,0.00,,,0.00,meteohub,2013-03-13 17:42:00,
2013-03-13 13:47:00,70.0,44.6,30.01,NW,315,8.0,15.0,40,0.00,,,0.00,meteohub,2013-03-13 17:47:00,
2013-03-13 13:52:00,70.5,43.7,30.01,NW,315,6.0,15.0,38,0.00,,,0.00,meteohub,2013-03-13 17:52:00,
2013-03-13 13:57:00,70.9,45.3,30.01,NW,315,12.0,15.0,40,0.00,,,0.00,meteohub,2013-03-13 17:57:00,
2013-03-13 14:03:00,70.5,43.0,30.00,NW,315,10.0,18.0,37,0.00,,,0.00,meteohub,2013-03-13 18:03:00,
2013-03-13 14:08:00,70.5,44.4,30.00,NW,315,4.0,18.0,39,0.00,,,0.00,meteohub,2013-03-13 18:08:00,
2013-03-13 14:13:00,71.1,42.8,30.00,NNE,23,11.0,18.0,36,0.00,,,0.00,meteohub,2013-03-13 18:13:00,
2013-03-13 14:18:00,70.7,42.4,29.99,NW,315,7.0,15.0,36,0.00,,,0.00,meteohub,2013-03-13 18:18:00,
2013-03-13 14:23:00,71.1,44.2,30.00,NW,315,15.0,15.0,38,0.00,,,0.00,meteohub,2013-03-13 18:23:00,
2013-03-13 14:29:00,70.0,42.4,29.99,West,270,8.0,15.0,37,0.00,,,0.00,meteohub,2013-03-13 18:29:00,
2013-03-13 14:34:00,69.6,44.2,29.99,North,0,9.0,15.0,40,0.00,,,0.00,meteohub,2013-03-13 18:34:00,
2013-03-13 14:39:00,69.3,42.6,29.98,West,270,10.0,15.0,38,0.00,,,0.00,meteohub,2013-03-13 18:39:00,
2013-03-13 14:44:00,68.9,43.0,29.99,North,0,12.0,15.0,39,0.00,,,0.00,meteohub,2013-03-13 18:44:00,
2013-03-13 14:49:00,68.4,42.4,29.98,NW,315,11.0,15.0,39,0.00,,,0.00,meteohub,2013-03-13 18:49:00,
2013-03-13 14:55:00,68.4,43.2,29.98,NW,315,9.0,15.0,40,0.00,,,0.00,meteohub,2013-03-13 18:55:00,
2013-03-13 15:00:00,68.5,43.9,29.98,North,0,8.0,19.0,41,0.00,,,0.00,meteohub,2013-03-13 19:00:00,
2013-03-13 15:05:00,68.5,41.9,29.97,NW,315,4.0,19.0,38,0.00,,,0.00,meteohub,2013-03-13 19:05:00,
2013-03-13 15:10:00,68.9,44.2,29.97,NW,315,17.0,17.0,41,0.00,,,0.00,meteohub,2013-03-13 19:10:00,
2013-03-13 15:16:00,69.1,41.7,29.97,North,0,9.0,17.0,37,0.00,,,0.00,meteohub,2013-03-13 19:16:00,
2013-03-13 15:21:00,68.9,45.5,29.97,NNW,338,9.0,17.0,43,0.00,,,0.00,meteohub,2013-03-13 19:21:00,
2013-03-13 15:27:00,68.7,44.8,29.96,North,0,5.0,17.0,42,0.00,,,0.00,meteohub,2013-03-13 19:27:00,
2013-03-13 15:32:00,69.4,42.8,29.96,NW,315,10.0,15.0,38,0.00,,,0.00,meteohub,2013-03-13 19:32:00,
2013-03-13 15:37:00,70.5,43.0,29.96,NW,315,11.0,18.0,37,0.00,,,0.00,meteohub,2013-03-13 19:37:00,
2013-03-13 15:42:00,71.6,42.4,29.96,WNW,293,15.0,18.0,35,0.00,,,0.00,meteohub,2013-03-13 19:42:00,
2013-03-13 15:48:00,70.9,42.6,29.96,NW,315,15.0,18.0,36,0.00,,,0.00,meteohub,2013-03-13 19:48:00,
2013-03-13 15:53:00,71.8,42.6,29.96,NW,315,13.0,17.0,35,0.00,,,0.00,meteohub,2013-03-13 19:53:00,
2013-03-13 15:58:00,71.8,42.6,29.96,North,0,11.0,17.0,35,0.00,,,0.00,meteohub,2013-03-13 19:58:00,
2013-03-13 16:03:00,71.4,43.2,29.96,NW,315,11.0,17.0,36,0.00,,,0.00,meteohub,2013-03-13 20:03:00,
2013-03-13 16:08:00,71.8,42.6,29.97,NW,315,14.0,19.0,35,0.00,,,0.00,meteohub,2013-03-13 20:08:00,
2013-03-13 16:13:00,71.4,43.7,29.96,NW,315,10.0,19.0,37,0.00,,,0.00,meteohub,2013-03-13 20:13:00,
2013-03-13 16:18:00,72.1,43.7,29.95,East,90,10.0,17.0,36,0.00,,,0.00,meteohub,2013-03-13 20:18:00,
2013-03-13 16:24:00,72.3,42.4,29.96,NNW,338,6.0,17.0,34,0.00,,,0.00,meteohub,2013-03-13 20:24:00,
2013-03-13 16:29:00,72.5,43.3,29.95,East,90,8.0,17.0,35,0.00,,,0.00,meteohub,2013-03-13 20:29:00,
2013-03-13 16:35:00,72.9,44.4,29.95,NE,45,10.0,17.0,36,0.00,,,0.00,meteohub,2013-03-13 20:35:00,
2013-03-13 16:40:00,72.3,43.9,29.95,WNW,293,13.0,17.0,36,0.00,,,0.00,meteohub,2013-03-13 20:40:00,
2013-03-13 16:45:00,72.9,43.5,29.95,NW,315,15.0,19.0,35,0.00,,,0.00,meteohub,2013-03-13 20:45:00,
2013-03-13 16:50:00,72.0,44.2,29.95,NW,315,16.0,19.0,37,0.00,,,0.00,meteohub,2013-03-13 20:50:00,
2013-03-13 16:55:00,72.1,44.4,29.95,NW,315,9.0,16.0,37,0.00,,,0.00,meteohub,2013-03-13 20:55:00,
2013-03-13 17:00:00,72.0,43.5,29.95,NW,315,10.0,16.0,36,0.00,,,0.00,meteohub,2013-03-13 21:00:00,
2013-03-13 17:05:00,71.6,43.2,29.94,North,0,18.0,18.0,36,0.00,,,0.00,meteohub,2013-03-13 21:05:00,
2013-03-13 17:10:00,71.6,44.6,29.94,NW,315,9.0,18.0,38,0.00,,,0.00,meteohub,2013-03-13 21:10:00,
2013-03-13 17:15:00,71.6,43.9,29.94,North,0,8.0,18.0,37,0.00,,,0.00,meteohub,2013-03-13 21:15:00,
2013-03-13 17:21:00,72.1,44.4,29.94,SW,225,8.0,18.0,37,0.00,,,0.00,meteohub,2013-03-13 21:21:00,
2013-03-13 17:26:00,71.4,43.7,29.94,North,0,11.0,17.0,37,0.00,,,0.00,meteohub,2013-03-13 21:26:00,
2013-03-13 17:31:00,71.6,43.2,29.95,NW,315,11.0,17.0,36,0.00,,,0.00,meteohub,2013-03-13 21:31:00,
2013-03-13 17:37:00,71.1,42.8,29.95,SW,225,13.0,17.0,36,0.00,,,0.00,meteohub,2013-03-13 21:37:00,
2013-03-13 17:42:00,71.1,41.4,29.94,NW,315,12.0,13.0,34,0.00,,,0.00,meteohub,2013-03-13 21:42:00,
2013-03-13 17:47:00,70.5,42.3,29.95,NW,315,13.0,13.0,36,0.00,,,0.00,meteohub,2013-03-13 21:47:00,
2013-03-13 17:52:00,69.8,43.7,29.95,North,0,8.0,16.0,39,0.00,,,0.00,meteohub,2013-03-13 21:52:00,
2013-03-13 17:58:00,70.3,43.5,29.95,NW,315,6.0,16.0,38,0.00,,,0.00,meteohub,2013-03-13 21:58:00,
2013-03-13 18:03:00,70.0,42.4,29.94,NW,315,13.0,16.0,37,0.00,,,0.00,meteohub,2013-03-13 22:03:00,
2013-03-13 18:08:00,69.1,41.0,29.95,North,0,9.0,16.0,36,0.00,,,0.00,meteohub,2013-03-13 22:08:00,
2013-03-13 18:13:00,69.1,41.7,29.95,SW,225,14.0,16.0,37,0.00,,,0.00,meteohub,2013-03-13 22:13:00,
2013-03-13 18:19:00,69.1,42.4,29.94,NW,315,7.0,16.0,38,0.00,,,0.00,meteohub,2013-03-13 22:19:00,
2013-03-13 18:24:00,69.6,42.3,29.95,NW,315,5.0,17.0,37,0.00,,,0.00,meteohub,2013-03-13 22:24:00,
2013-03-13 18:30:00,68.9,41.5,29.95,NW,315,4.0,17.0,37,0.00,,,0.00,meteohub,2013-03-13 22:30:00,
2013-03-13 18:35:00,68.0,42.1,29.95,NW,315,11.0,14.0,39,0.00,,,0.00,meteohub,2013-03-13 22:35:00,
2013-03-13 18:40:00,66.6,42.1,29.95,North,0,7.0,14.0,41,0.00,,,0.00,meteohub,2013-03-13 22:40:00,
2013-03-13 18:46:00,65.8,40.8,29.96,North,0,7.0,12.0,40,0.00,,,0.00,meteohub,2013-03-13 22:46:00,
2013-03-13 18:51:00,65.1,40.8,29.95,North,0,5.0,11.0,41,0.00,,,0.00,meteohub,2013-03-13 22:51:00,
2013-03-13 18:57:00,64.2,40.6,29.95,North,0,4.0,11.0,42,0.00,,,0.00,meteohub,2013-03-13 22:57:00,
2013-03-13 19:02:00,63.3,39.2,29.95,North,0,7.0,11.0,41,0.00,,,0.00,meteohub,2013-03-13 23:02:00,
2013-03-13 19:07:00,62.6,38.5,29.96,North,0,7.0,11.0,41,0.00,,,0.00,meteohub,2013-03-13 23:07:00,
2013-03-13 19:12:00,62.1,38.7,29.96,WNW,293,9.0,11.0,42,0.00,,,0.00,meteohub,2013-03-13 23:12:00,
2013-03-13 19:17:00,61.7,38.3,29.96,North,0,3.0,9.0,42,0.00,,,0.00,meteohub,2013-03-13 23:17:00,
2013-03-13 19:22:00,61.3,38.7,29.96,North,0,4.0,9.0,43,0.00,,,0.00,meteohub,2013-03-13 23:22:00,
2013-03-13 19:28:00,60.8,38.7,29.96,NW,315,4.0,9.0,44,0.00,,,0.00,meteohub,2013-03-13 23:28:00,
2013-03-13 19:33:00,60.3,38.3,29.96,NW,315,2.0,8.0,44,0.00,,,0.00,meteohub,2013-03-13 23:33:00,
2013-03-13 19:38:00,59.7,37.8,29.97,North,0,8.0,8.0,44,0.00,,,0.00,meteohub,2013-03-13 23:38:00,
2013-03-13 19:43:00,59.7,38.3,29.97,NW,315,6.0,6.0,45,0.00,,,0.00,meteohub,2013-03-13 23:43:00,
2013-03-13 19:49:00,59.4,38.7,29.97,West,270,3.0,8.0,46,0.00,,,0.00,meteohub,2013-03-13 23:49:00,
2013-03-13 19:54:00,59.0,39.4,29.98,NW,315,4.0,8.0,48,0.00,,,0.00,meteohub,2013-03-13 23:54:00,
2013-03-13 19:59:00,58.6,38.5,29.98,West,270,2.0,6.0,47,0.00,,,0.00,meteohub,2013-03-13 23:59:00,
2013-03-13 20:05:00,58.1,38.5,29.98,NW,315,3.0,5.0,48,0.00,,,0.00,meteohub,2013-03-14 00:05:00,
2013-03-13 20:10:00,58.1,38.5,29.98,WNW,293,5.0,5.0,48,0.00,,,0.00,meteohub,2013-03-14 00:10:00,
2013-03-13 20:15:00,58.3,37.6,29.98,West,270,4.0,7.0,46,0.00,,,0.00,meteohub,2013-03-14 00:15:00,
2013-03-13 20:21:00,58.3,37.0,29.98,West,270,4.0,7.0,45,0.00,,,0.00,meteohub,2013-03-14 00:21:00,
2013-03-13 20:26:00,58.3,36.5,29.98,North,0,6.0,7.0,44,0.00,,,0.00,meteohub,2013-03-14 00:26:00,
2013-03-13 20:31:00,58.1,35.8,29.98,North,0,5.0,7.0,43,0.00,,,0.00,meteohub,2013-03-14 00:31:00,
2013-03-13 20:37:00,57.9,34.9,29.99,NW,315,3.0,7.0,42,0.00,,,0.00,meteohub,2013-03-14 00:37:00,
2013-03-13 20:42:00,57.7,36.0,29.99,NW,315,4.0,8.0,44,0.00,,,0.00,meteohub,2013-03-14 00:42:00,
2013-03-13 20:47:00,57.6,35.8,29.99,NW,315,6.0,8.0,44,0.00,,,0.00,meteohub,2013-03-14 00:47:00,
2013-03-13 20:52:00,57.6,35.2,29.99,North,0,2.0,6.0,43,0.00,,,0.00,meteohub,2013-03-14 00:52:00,
2013-03-13 20:57:00,57.0,34.7,30.00,NNW,338,3.0,6.0,43,0.00,,,0.00,meteohub,2013-03-14 00:57:00,
2013-03-13 21:02:00,56.7,35.1,30.00,North,0,1.0,6.0,44,0.00,,,0.00,meteohub,2013-03-14 01:02:00,
2013-03-13 21:07:00,56.1,35.6,30.00,North,0,7.0,7.0,46,0.00,,,0.00,meteohub,2013-03-14 01:07:00,
2013-03-13 21:12:00,56.1,35.6,30.00,North,0,5.0,7.0,46,0.00,,,0.00,meteohub,2013-03-14 01:12:00,
2013-03-13 21:18:00,56.1,35.1,30.01,North,0,2.0,7.0,45,0.00,,,0.00,meteohub,2013-03-14 01:18:00,
2013-03-13 21:23:00,55.6,35.1,30.01,NNW,338,4.0,8.0,46,0.00,,,0.00,meteohub,2013-03-14 01:23:00,
2013-03-13 21:28:00,54.9,34.0,30.01,East,90,2.0,8.0,45,0.00,,,0.00,meteohub,2013-03-14 01:28:00,
2013-03-13 21:34:00,54.5,34.7,30.01,NW,315,3.0,4.0,47,0.00,,,0.00,meteohub,2013-03-14 01:34:00,
2013-03-13 21:39:00,54.3,34.5,30.02,North,0,2.0,4.0,47,0.00,,,0.00,meteohub,2013-03-14 01:39:00,
2013-03-13 21:44:00,54.0,34.7,30.02,North,0,2.0,4.0,48,0.00,,,0.00,meteohub,2013-03-14 01:44:00,
2013-03-13 21:50:00,53.4,34.2,30.02,North,0,2.0,3.0,48,0.00,,,0.00,meteohub,2013-03-14 01:50:00,
2013-03-13 21:55:00,53.1,33.8,30.03,NW,315,2.0,3.0,48,0.00,,,0.00,meteohub,2013-03-14 01:55:00,
2013-03-13 22:00:00,53.2,33.4,30.03,NE,45,2.0,4.0,47,0.00,,,0.00,meteohub,2013-03-14 02:00:00,
2013-03-13 22:05:00,53.1,33.4,30.03,North,0,1.0,5.0,47,0.00,,,0.00,meteohub,2013-03-14 02:05:00,
2013-03-13 22:11:00,52.9,33.8,30.04,North,0,2.0,5.0,48,0.00,,,0.00,meteohub,2013-03-14 02:11:00,
2013-03-13 22:16:00,52.5,32.9,30.04,SW,225,4.0,4.0,47,0.00,,,0.00,meteohub,2013-03-14 02:16:00,
2013-03-13 22:21:00,52.5,33.4,30.04,NW,315,2.0,4.0,48,0.00,,,0.00,meteohub,2013-03-14 02:21:00,
2013-03-13 22:27:00,52.5,32.9,30.04,WNW,293,1.0,4.0,47,0.00,,,0.00,meteohub,2013-03-14 02:27:00,
2013-03-13 22:32:00,52.2,32.5,30.04,NNE,23,3.0,4.0,47,0.00,,,0.00,meteohub,2013-03-14 02:32:00,
2013-03-13 22:37:00,52.2,32.5,30.04,NE,45,2.0,4.0,47,0.00,,,0.00,meteohub,2013-03-14 02:37:00,
2013-03-13 22:42:00,52.2,33.1,30.04,West,270,1.0,4.0,48,0.00,,,0.00,meteohub,2013-03-14 02:42:00,
2013-03-13 22:47:00,51.8,32.7,30.04,NW,315,3.0,4.0,48,0.00,,,0.00,meteohub,2013-03-14 02:47:00,
2013-03-13 22:52:00,51.8,32.7,30.05,NW,315,2.0,4.0,48,0.00,,,0.00,meteohub,2013-03-14 02:52:00,
2013-03-13 22:57:00,51.6,33.6,30.04,NW,315,4.0,4.0,50,0.00,,,0.00,meteohub,2013-03-14 02:57:00,
2013-03-13 23:02:00,51.3,32.7,30.05,North,0,2.0,4.0,49,0.00,,,0.00,meteohub,2013-03-14 03:02:00,
2013-03-13 23:07:00,51.1,32.5,30.04,North,0,1.0,4.0,49,0.00,,,0.00,meteohub,2013-03-14 03:07:00,
2013-03-13 23:12:00,50.5,32.0,30.04,NE,45,1.0,4.0,49,0.00,,,0.00,meteohub,2013-03-14 03:12:00,
2013-03-13 23:17:00,50.2,33.3,30.04,North,0,2.0,4.0,52,0.00,,,0.00,meteohub,2013-03-14 03:17:00,
2013-03-13 23:22:00,50.2,32.7,30.05,South,180,1.0,2.0,51,0.00,,,0.00,meteohub,2013-03-14 03:22:00,
2013-03-13 23:27:00,50.0,33.1,30.05,North,0,3.0,4.0,52,0.00,,,0.00,meteohub,2013-03-14 03:27:00,
2013-03-13 23:32:00,49.6,33.3,30.04,NW,315,2.0,4.0,53,0.00,,,0.00,meteohub,2013-03-14 03:32:00,
2013-03-13 23:37:00,49.6,32.7,30.05,North,0,3.0,3.0,52,0.00,,,0.00,meteohub,2013-03-14 03:37:00,
2013-03-13 23:42:00,49.8,32.9,30.06,NE,45,4.0,4.0,52,0.00,,,0.00,meteohub,2013-03-14 03:42:00,
2013-03-13 23:47:00,50.2,32.7,30.06,North,0,3.0,5.0,51,0.00,,,0.00,meteohub,2013-03-14 03:47:00,
2013-03-13 23:52:00,50.2,32.7,30.06,North,0,5.0,5.0,51,0.00,,,0.00,meteohub,2013-03-14 03:52:00,
2013-03-13 23:57:00,50.4,32.4,30.06,North,0,5.0,6.0,50,0.00,,,0.00,meteohub,2013-03-14 03:57:00,